Weather History for Beatrice, NE

Change the Weather History Date:

Wednesday, December 26, 2012

  Actual Average Record
Temperature  
Mean Temperature 12 °F -  
Max Temperature 22 °F 35 °F 65 °F (1959)
Min Temperature 3 °F 16 °F -8 °F (1948)
Degree Days  
Heating Degree Days 52    
Moisture  
Dew Point 5 °F    
Average Humidity 71    
Maximum Humidity 82    
Minimum Humidity 52    
Precipitation  
Precipitation 0.00 in - - ()
Sea Level Pressure  
Sea Level Pressure 30.22 in    
Wind  
Wind Speed 7 mph (NNE)    
Max Wind Speed 10 mph    
Max Gust Speed -    
Visibility 10 miles    
Events      
Averages and records for this station are not official NWS values.
T = Trace of Precipitation, MM = Missing Value Source: NWS Daily Summary

Daily Weather History Graph

Daily Weather History Graph

Search for Another Location

Airport:

Trip Planner

Search our weather history database for the weather conditions in past years. The results will help you decide how hot, cold, wet, or windy it might be!

Date:

Astronomy

Dec. 26, 2012 Rise Set
Actual Time 7:48 AM CST 5:07 PM CST
Civil Twilight 7:17 AM CST 5:38 PM CST
Nautical Twilight 6:43 AM CST 6:12 PM CST
Astronomical Twilight 6:10 AM CST 6:45 PM CST
Moon 4:01 PM CST 6:12 AM CST
Length of Visible Light 10h 20m
Length of Day
9h 18m
Waxing Gibbous, 97% of the Moon is Illuminated
Dec 26
Waxing Gibbous
Dec 28
Full
Jan 4
Last Quarter
Jan 11
New
Jan 18
First Quarter

Hourly Weather History & Observations

Time (CST) Temp. Windchill Dew Point Humidity Pressure Visibility Wind Dir Wind Speed Gust Speed Precip Events Conditions
12:15 AM 8.2 °F -6.0 °F 2.8 °F 79% 30.32 in 10.0 mi North 10.4 mph - N/A   Clear
12:35 AM 7.7 °F -6.6 °F 2.3 °F 79% 30.32 in 10.0 mi North 10.4 mph - N/A   Clear
12:55 AM 7.7 °F -6.6 °F 2.3 °F 79% 30.32 in 10.0 mi North 10.4 mph - N/A   Clear
1:15 AM 7.5 °F -6.0 °F 2.1 °F 79% 30.32 in 10.0 mi North 9.2 mph - N/A   Clear
1:35 AM 7.3 °F -6.2 °F 2.1 °F 79% 30.33 in 10.0 mi North 9.2 mph - N/A   Clear
1:55 AM 7.3 °F -6.2 °F 2.1 °F 79% 30.32 in 10.0 mi North 9.2 mph - N/A   Clear
2:15 AM 7.5 °F -6.9 °F 2.1 °F 79% 30.32 in 10.0 mi North 10.4 mph - N/A   Clear
2:35 AM 7.5 °F -6.0 °F 2.1 °F 79% 30.32 in 10.0 mi North 9.2 mph - N/A   Clear
2:55 AM 7.0 °F -6.6 °F 1.4 °F 78% 30.32 in 10.0 mi North 9.2 mph - N/A   Clear
3:15 AM 7.2 °F -6.4 °F 1.8 °F 79% 30.32 in 10.0 mi North 9.2 mph - N/A   Clear
3:35 AM 7.0 °F -6.6 °F 1.4 °F 78% 30.30 in 10.0 mi North 9.2 mph - N/A   Clear
3:55 AM 6.8 °F -5.9 °F 1.4 °F 79% 30.30 in 10.0 mi North 8.1 mph - N/A   Clear
4:15 AM 6.4 °F -7.3 °F 1.2 °F 79% 30.30 in 10.0 mi North 9.2 mph - N/A   Clear
4:35 AM 6.6 °F -5.0 °F 1.0 °F 78% 30.29 in 10.0 mi North 6.9 mph - N/A   Clear
4:55 AM 5.7 °F -7.2 °F 0.3 °F 78% 30.29 in 10.0 mi North 8.1 mph - N/A   Clear
5:15 AM 5.7 °F -4.8 °F 0.3 °F 78% 30.28 in 10.0 mi North 5.8 mph - N/A   Clear
5:35 AM 5.7 °F -4.8 °F 0.5 °F 79% 30.27 in 10.0 mi North 5.8 mph - N/A   Clear
5:55 AM 5.9 °F -4.5 °F 0.5 °F 78% 30.25 in 10.0 mi NNE 5.8 mph - N/A   Clear
6:15 AM 5.4 °F -5.2 °F 0.1 °F 79% 30.24 in 10.0 mi NNE 5.8 mph - N/A   Clear
6:35 AM 5.4 °F -5.2 °F -0.0 °F 78% 30.23 in 10.0 mi NNE 5.8 mph - N/A   Clear
6:55 AM 5.0 °F -5.6 °F -0.4 °F 78% 30.23 in 10.0 mi North 5.8 mph - N/A   Clear
7:15 AM 4.8 °F -2.3 °F -0.8 °F 78% 30.24 in 10.0 mi NNW 3.5 mph - N/A   Clear
7:35 AM 3.9 °F -3.4 °F -1.7 °F 78% 30.23 in 10.0 mi NNW 3.5 mph - N/A   Clear
7:55 AM 3.9 °F -9.4 °F -1.3 °F 79% 30.24 in 10.0 mi NNW 8.1 mph - N/A   Clear
8:15 AM 5.0 °F -6.9 °F -0.4 °F 78% 30.25 in 10.0 mi NNW 6.9 mph - N/A   Clear
8:35 AM 5.9 °F -8.0 °F 0.3 °F 78% 30.25 in 10.0 mi NW 9.2 mph - N/A   Clear
8:55 AM 6.8 °F -5.9 °F 1.2 °F 78% 30.25 in 10.0 mi NW 8.1 mph - N/A   Clear
9:15 AM 7.7 °F -6.6 °F 2.1 °F 78% 30.27 in 10.0 mi NW 10.4 mph - N/A   Clear
9:35 AM 8.4 °F -5.7 °F 2.7 °F 77% 30.28 in 10.0 mi NNW 10.4 mph - N/A   Clear
9:55 AM 9.1 °F -3.0 °F 2.8 °F 76% 30.28 in 10.0 mi NNW 8.1 mph - N/A   Clear
10:15 AM 10.2 °F -1.7 °F 3.7 °F 75% 30.28 in 10.0 mi North 8.1 mph - N/A   Clear
10:35 AM 11.5 °F -0.2 °F 4.5 °F 73% 30.28 in 10.0 mi NNW 8.1 mph - N/A   Clear
10:55 AM 12.7 °F 3.6 °F 5.4 °F 72% 30.28 in 10.0 mi North 5.8 mph - N/A   Clear
11:15 AM 13.8 °F 6.2 °F 5.9 °F 71% 30.27 in 10.0 mi North 4.6 mph - N/A   Clear
11:35 AM 14.9 °F 6.1 °F 6.1 °F 68% 30.25 in 10.0 mi North 5.8 mph - N/A   Clear
11:55 AM 16.2 °F 9.0 °F 6.3 °F 65% 30.24 in 10.0 mi North 4.6 mph - N/A   Clear
12:15 PM 17.4 °F 9.1 °F 6.1 °F 61% 30.22 in 10.0 mi NE 5.8 mph - N/A   Clear
12:35 PM 18.5 °F 11.7 °F 6.6 °F 60% 30.21 in 10.0 mi North 4.6 mph - N/A   Clear
12:55 PM 19.4 °F 12.8 °F 6.8 °F 58% 30.21 in 10.0 mi NE 4.6 mph - N/A   Clear
1:15 PM 20.5 °F 12.8 °F 7.5 °F 57% 30.20 in 10.0 mi NE 5.8 mph - N/A   Clear
1:35 PM 20.8 °F 16.0 °F 7.0 °F 55% 30.19 in 10.0 mi NNE 3.5 mph - N/A   Clear
1:55 PM 21.7 °F 17.0 °F 7.2 °F 54% 30.18 in 10.0 mi East 3.5 mph - N/A   Clear
2:15 PM 21.4 °F 13.8 °F 7.3 °F 55% 30.17 in 10.0 mi NNE 5.8 mph - N/A   Clear
2:35 PM 22.6 °F 18.0 °F 7.5 °F 52% 30.17 in 10.0 mi ENE 3.5 mph - N/A   Clear
2:55 PM 22.5 °F 16.3 °F 7.7 °F 53% 30.17 in 10.0 mi East 4.6 mph - N/A   Clear
3:15 PM 22.1 °F 15.9 °F 7.7 °F 54% 30.17 in 10.0 mi NE 4.6 mph - N/A   Clear
3:35 PM 22.5 °F 17.8 °F 7.7 °F 53% 30.18 in 10.0 mi North 3.5 mph - N/A   Clear
3:55 PM 22.6 °F 16.5 °F 8.1 °F 54% 30.17 in 10.0 mi NE 4.6 mph - N/A   Clear
4:15 PM 22.6 °F - 7.7 °F 53% 30.18 in 10.0 mi Calm Calm - N/A   Clear
4:35 PM 22.3 °F - 7.5 °F 53% 30.18 in 10.0 mi Calm Calm - N/A   Clear
4:55 PM 22.1 °F 17.4 °F 7.5 °F 54% 30.17 in 10.0 mi ENE 3.5 mph - N/A   Clear
5:15 PM 21.4 °F 15.1 °F 7.7 °F 56% 30.15 in 10.0 mi East 4.6 mph - N/A   Clear
5:35 PM 20.5 °F 15.6 °F 8.2 °F 59% 30.15 in 10.0 mi NE 3.5 mph - N/A   Clear
5:55 PM 19.9 °F 13.4 °F 8.6 °F 61% 30.14 in 10.0 mi East 4.6 mph - N/A   Clear
6:15 PM 19.6 °F 13.0 °F 8.6 °F 62% 30.14 in 10.0 mi East 4.6 mph - N/A   Clear
6:35 PM 19.4 °F 14.3 °F 9.3 °F 65% 30.15 in 10.0 mi East 3.5 mph - N/A   Clear
6:55 PM 19.2 °F - 9.3 °F 65% 30.16 in 10.0 mi Calm Calm - N/A   Clear
7:15 PM 18.9 °F 13.7 °F 9.5 °F 67% 30.14 in 10.0 mi East 3.5 mph - N/A   Clear
7:35 PM 18.7 °F 13.5 °F 10.0 °F 69% 30.15 in 10.0 mi East 3.5 mph - N/A   Clear
7:55 PM 18.5 °F - 10.0 °F 70% 30.15 in 10.0 mi Calm Calm - N/A   Clear
8:15 PM 18.5 °F 11.7 °F 10.2 °F 70% 30.14 in 10.0 mi ENE 4.6 mph - N/A   Clear
8:35 PM 17.8 °F - 10.4 °F 73% 30.15 in 10.0 mi Calm Calm - N/A   Clear
8:55 PM 16.7 °F 11.2 °F 9.9 °F 74% 30.15 in 10.0 mi ENE 3.5 mph - N/A   Clear
9:15 PM 16.5 °F 11.0 °F 10.0 °F 76% 30.15 in 10.0 mi ENE 3.5 mph - N/A   Clear
9:35 PM 15.8 °F 10.2 °F 9.9 °F 77% 30.15 in 10.0 mi ENE 3.5 mph - N/A   Clear
9:55 PM 14.9 °F 9.2 °F 9.5 °F 79% 30.14 in 10.0 mi ENE 3.5 mph - N/A   Clear
10:35 PM 14.5 °F 5.7 °F 9.5 °F 80% 30.13 in 10.0 mi East 5.8 mph - N/A   Clear
10:55 PM 13.8 °F 6.2 °F 9.1 °F 82% 30.11 in 10.0 mi East 4.6 mph - N/A   Clear
11:15 PM 13.5 °F 7.5 °F 8.6 °F 81% 30.12 in 10.0 mi East 3.5 mph - N/A   Clear
11:35 PM 13.5 °F 5.8 °F 8.4 °F 80% 30.11 in 10.0 mi East 4.6 mph - N/A   Clear
11:55 PM 13.1 °F 5.4 °F 7.9 °F 80% 30.10 in 10.0 mi ENE 4.6 mph - N/A   Clear